カタログに戻る

EXPLORER 7

運用中科学VLEO
NORAD 22·PAYLOAD·🇺🇸 United States

打ち上げ Oct 13, 1959 から Cape Canaveral Space Force Station

Loading…

次のパス (今後24時間)

TLE

最新Source: Space-Track

元期: Sep 14, 2026, 13:38 UTC

1 00022U 59009A   26257.56874168  .00010847  00000-0  34177-3 0  9999
2 00022  50.2420  17.4906 0074094 126.2564 234.5273 15.30757225814035

AllMySatでEXPLORER 7をリアルタイム追跡

Download on the App Store